Stündliche Wetter Otlowko

Heute, 14 April, Mittwoch

Zeit Temperatur Niederschläge Wind Luftdruck Luftfeuchtigkeit
00:00 +3°C° 0 mm 1 m/S 760 mmHg 77%
01:00 +2°C° 0 mm 2 m/S 760 mmHg 78%
02:00 +2°C° 0 mm 2 m/S 759 mmHg 77%
03:00 +2°C° 0 mm 2 m/S 759 mmHg 77%
04:00 +2°C° 0 mm 2 m/S 759 mmHg 77%
05:00 +3°C° 0 mm 2 m/S 759 mmHg 76%
06:00 +3°C° 0 mm 2 m/S 759 mmHg 75%
07:00 +3°C° 0 mm 2 m/S 759 mmHg 74%
08:00 +3°C° 0 mm 3 m/S 759 mmHg 69%
09:00 +4°C° 0 mm 3 m/S 759 mmHg 64%
10:00 +5°C° 0 mm 4 m/S 759 mmHg 60%
11:00 +6°C° 0 mm 5 m/S 759 mmHg 57%
12:00 +6°C° 0 mm 5 m/S 759 mmHg 55%
13:00 +5°C° 0 mm 6 m/S 759 mmHg 53%
14:00 +5°C° 0 mm 6 m/S 759 mmHg 55%
15:00 +4°C° 0 mm 6 m/S 759 mmHg 57%
16:00 +4°C° 0 mm 6 m/S 759 mmHg 59%
17:00 +3°C° 0 mm 6 m/S 759 mmHg 64%
18:00 +2°C° 0 mm 5 m/S 760 mmHg 68%
19:00 +1°C° 0 mm 5 m/S 760 mmHg 72%
20:00 +1°C° 0 mm 5 m/S 760 mmHg 75%
21:00 +1°C° 0 mm 5 m/S 760 mmHg 78%
22:00 +1°C° 0 mm 5 m/S 760 mmHg 81%
23:00 +1°C° 0.1 mm 5 m/S 759 mmHg 84%

Morgen, 15 April, Donnerstag

Zeit Temperatur Niederschläge Wind Luftdruck Luftfeuchtigkeit
00:00 +1°C° 0.1 mm 5 m/S 759 mmHg 87%
01:00 +1°C° 0.1 mm 5 m/S 759 mmHg 90%
02:00 +1°C° 0.1 mm 6 m/S 759 mmHg 91%
03:00 +1°C° 0.1 mm 6 m/S 759 mmHg 91%
04:00 +1°C° 0.1 mm 6 m/S 759 mmHg 91%
05:00 -1°C° 0.2 mm 6 m/S 758 mmHg 92%
06:00 -1°C° 0.2 mm 6 m/S 758 mmHg 94%
07:00 -1°C° 0.2 mm 7 m/S 758 mmHg 95%
08:00 -1°C° 0.3 mm 7 m/S 758 mmHg 95%
09:00 -1°C° 0.3 mm 7 m/S 758 mmHg 95%
10:00 -1°C° 0.3 mm 7 m/S 758 mmHg 96%
11:00 0°C° 0.4 mm 7 m/S 758 mmHg 96%
12:00 0°C° 0.4 mm 7 m/S 758 mmHg 95%
13:00 0°C° 0.4 mm 7 m/S 758 mmHg 95%
14:00 +1°C° 0.7 mm 6 m/S 758 mmHg 93%
15:00 +1°C° 0.7 mm 6 m/S 758 mmHg 92%
16:00 +2°C° 0.7 mm 6 m/S 758 mmHg 90%
17:00 +2°C° 0.2 mm 5 m/S 758 mmHg 89%
18:00 +2°C° 0.2 mm 5 m/S 758 mmHg 88%
19:00 +2°C° 0.2 mm 5 m/S 758 mmHg 87%
20:00 +2°C° 0 mm 5 m/S 758 mmHg 87%
21:00 +2°C° 0 mm 5 m/S 758 mmHg 87%
22:00 +3°C° 0 mm 4 m/S 758 mmHg 87%
23:00 +3°C° 0 mm 4 m/S 757 mmHg 86%

übermorgen, 16 April, Freitag

Zeit Temperatur Niederschläge Wind Luftdruck Luftfeuchtigkeit
00:00 +3°C° 0 mm 4 m/S 757 mmHg 85%
01:00 +3°C° 0 mm 4 m/S 757 mmHg 84%
02:00 +1°C° 0 mm 4 m/S 757 mmHg 86%
03:00 +1°C° 0 mm 4 m/S 757 mmHg 87%
04:00 +1°C° 0 mm 4 m/S 757 mmHg 88%
05:00 +1°C° 0 mm 4 m/S 757 mmHg 88%
06:00 +1°C° 0 mm 4 m/S 757 mmHg 88%
07:00 +1°C° 0 mm 4 m/S 757 mmHg 89%
08:00 +1°C° 0.2 mm 4 m/S 757 mmHg 90%
09:00 +1°C° 0.2 mm 4 m/S 757 mmHg 91%
10:00 +1°C° 0.2 mm 4 m/S 757 mmHg 92%
11:00 +2°C° 0 mm 5 m/S 758 mmHg 90%
12:00 +3°C° 0 mm 5 m/S 758 mmHg 87%
13:00 +5°C° 0 mm 5 m/S 758 mmHg 85%
14:00 +3°C° 0 mm 5 m/S 758 mmHg 86%
15:00 +4°C° 0 mm 4 m/S 758 mmHg 88%
16:00 +4°C° 0 mm 4 m/S 758 mmHg 89%
17:00 +4°C° 0 mm 4 m/S 758 mmHg 91%
18:00 +4°C° 0 mm 4 m/S 758 mmHg 92%
19:00 +4°C° 0 mm 4 m/S 758 mmHg 93%
20:00 +4°C° 0 mm 3 m/S 758 mmHg 94%
21:00 +3°C° 0 mm 3 m/S 758 mmHg 96%
22:00 +3°C° 0 mm 3 m/S 758 mmHg 97%
23:00 +3°C° 0 mm 3 m/S 758 mmHg 96%

17 April, Samstag

Zeit Temperatur Niederschläge Wind Luftdruck Luftfeuchtigkeit
00:00 +3°C° 0 mm 3 m/S 758 mmHg 96%
01:00 +4°C° 0 mm 3 m/S 758 mmHg 96%
02:00 +4°C° 0 mm 3 m/S 758 mmHg 96%
03:00 +4°C° 0 mm 3 m/S 758 mmHg 97%
04:00 +4°C° 0 mm 3 m/S 758 mmHg 97%
05:00 +4°C° 0 mm 3 m/S 758 mmHg 97%
06:00 +5°C° 0 mm 3 m/S 758 mmHg 96%
07:00 +5°C° 0 mm 3 m/S 758 mmHg 96%
08:00 +5°C° 0 mm 3 m/S 758 mmHg 95%
09:00 +7°C° 0 mm 3 m/S 758 mmHg 94%
10:00 +7°C° 0 mm 3 m/S 758 mmHg 93%
11:00 +8°C° 0 mm 3 m/S 758 mmHg 87%
12:00 +9°C° 0 mm 3 m/S 758 mmHg 81%
13:00 +11°C° 0 mm 3 m/S 758 mmHg 75%
14:00 +11°C° 0.1 mm 4 m/S 758 mmHg 75%
15:00 +11°C° 0.1 mm 4 m/S 758 mmHg 75%
16:00 +12°C° 0.1 mm 4 m/S 758 mmHg 74%
17:00 +10°C° 0.2 mm 4 m/S 758 mmHg 80%
18:00 +8°C° 0.2 mm 4 m/S 758 mmHg 87%
19:00 +8°C° 0.2 mm 3 m/S 758 mmHg 93%
20:00 +7°C° 0.1 mm 3 m/S 758 mmHg 93%
21:00 +7°C° 0.1 mm 3 m/S 758 mmHg 93%
22:00 +6°C° 0.1 mm 2 m/S 758 mmHg 93%
23:00 +6°C° 0 mm 2 m/S 758 mmHg 93%

18 April, Sonntag

Zeit Temperatur Niederschläge Wind Luftdruck Luftfeuchtigkeit
00:00 +6°C° 0 mm 2 m/S 758 mmHg 93%
01:00 +5°C° 0 mm 2 m/S 758 mmHg 92%
02:00 +5°C° 0 mm 2 m/S 758 mmHg 93%
03:00 +5°C° 0 mm 2 m/S 758 mmHg 93%
04:00 +5°C° 0 mm 2 m/S 758 mmHg 93%
05:00 +6°C° 0 mm 2 m/S 758 mmHg 90%
06:00 +7°C° 0 mm 2 m/S 758 mmHg 88%
07:00 +8°C° 0 mm 2 m/S 758 mmHg 86%
08:00 +9°C° 0 mm 2 m/S 758 mmHg 85%
09:00 +9°C° 0 mm 2 m/S 759 mmHg 83%
10:00 +10°C° 0 mm 2 m/S 759 mmHg 82%
11:00 +10°C° 0.1 mm 2 m/S 759 mmHg 83%
12:00 +10°C° 0.1 mm 2 m/S 759 mmHg 83%
13:00 +11°C° 0.1 mm 1 m/S 759 mmHg 84%
14:00 +12°C° 0 mm 2 m/S 759 mmHg 79%
15:00 +13°C° 0 mm 2 m/S 758 mmHg 73%
16:00 +14°C° 0 mm 2 m/S 758 mmHg 68%
17:00 +12°C° 0.1 mm 2 m/S 758 mmHg 74%
18:00 +10°C° 0.1 mm 2 m/S 759 mmHg 81%
19:00 +9°C° 0.1 mm 2 m/S 759 mmHg 87%
20:00 +9°C° 0 mm 2 m/S 759 mmHg 89%
21:00 +8°C° 0 mm 2 m/S 759 mmHg 91%
22:00 +7°C° 0 mm 2 m/S 759 mmHg 93%
23:00 +7°C° 0 mm 2 m/S 759 mmHg 94%

19 April, Montag

Zeit Temperatur Niederschläge Wind Luftdruck Luftfeuchtigkeit
00:00 +7°C° 0 mm 2 m/S 759 mmHg 94%
01:00 +7°C° 0 mm 2 m/S 759 mmHg 95%
02:00 +7°C° 0 mm 2 m/S 759 mmHg 95%
03:00 +7°C° 0 mm 2 m/S 759 mmHg 96%
04:00 +7°C° 0 mm 2 m/S 758 mmHg 97%
05:00 +8°C° 0 mm 3 m/S 759 mmHg 93%
06:00 +8°C° 0 mm 3 m/S 759 mmHg 90%
07:00 +8°C° 0 mm 4 m/S 759 mmHg 86%
08:00 +10°C° 0 mm 4 m/S 759 mmHg 77%
09:00 +10°C° 0 mm 5 m/S 759 mmHg 68%
10:00 +13°C° 0 mm 6 m/S 759 mmHg 59%
11:00 +13°C° 0 mm 5 m/S 759 mmHg 59%
12:00 +13°C° 0 mm 5 m/S 759 mmHg 58%
13:00 +12°C° 0 mm 5 m/S 758 mmHg 58%
14:00 +12°C° 0 mm 5 m/S 758 mmHg 60%
15:00 +12°C° 0 mm 4 m/S 758 mmHg 61%
16:00 +12°C° 0 mm 4 m/S 758 mmHg 63%
17:00 +12°C° 0 mm 4 m/S 758 mmHg 67%
18:00 +11°C° 0 mm 4 m/S 758 mmHg 70%
19:00 +10°C° 0 mm 3 m/S 758 mmHg 74%
20:00 +10°C° 0 mm 3 m/S 758 mmHg 76%
21:00 +9°C° 0 mm 3 m/S 758 mmHg 78%
22:00 +9°C° 0 mm 3 m/S 758 mmHg 80%
23:00 +9°C° 0 mm 3 m/S 757 mmHg 81%
Mehr zeigen

Wir brauchen deine Erlaubnis

Meteoprog und unser Service Anbieter werden persönliche Daten aufbewahren, so wie Cookies, Geräte Bezeichnung oder ähnliche Technologien von deinem Gerät und Prozess, so wie Persönliche Daten Inhalte und Werbungen, genauso wie social Media und den Verkehr zu analysieren.

  • Aufbewahrung und/oder Zugang zu deiner Geräte Informationen.

    Cookies, Geräte Bezeichnung oder andere Informationen, können aufbewahrt oder Zugang zu deinem Gerät erhalten, für den Grund, der oben angegeben wird.

  • Personalisierte Werbung und Inhalte, Messungen, Einblick in das Publikum und Produkt Entwicklung.

    Werbungen und Inhalte können personalisiert werden, basierend auf ein Profil. Mehr Daten können besser personalisierte Werbungen und Inhalte hinzufügen. Werbung und Inhalte können gezeigt und gemessen werden. Einblicke über das Publikum, welche die Werbung gesehen haben und den Inhalt, können abgeleitet werden. So wie Daten können genutzt werden, um es zu verbessern oder die Benutzer Erfahrung zu verbessern das System und die Software.

Wenn du “Ich stimme zu” klickst, erlaubst du uns, die Cookies zu benutzen die Geräte Bezeichnung, den Web oder ähnliche Technologien zu benutzen. Deine Settings, können in deinem Gerät bei deinem Browser geändert werden.

Für den bestimmten Zweck, berechtigten Interessen beruhen darauf, mehr als auf den Inhalt. Du kannst mehr darüber in unseren Privaten und Cookie Politik lesen.